カタログに戻る

STARLINK-3617

運用中通信VLEO
NORAD 51780·PAYLOAD·🇺🇸 United States

打ち上げ Feb 25, 2022 から Vandenberg Space Force Base

Loading…

次のパス (今後24時間)

TLE

最新Source: CelesTrak SupGP

元期: Sep 14, 2026, 22:05 UTC

1 51780C 22017N   26257.92062500 -.00020848  00000+0 -61516-3 0  2571
2 51780  53.1571 197.4724 0001351  88.7142 226.3276 15.34442182    12

AllMySatでSTARLINK-3617をリアルタイム追跡

Download on the App Store